TimeEDT,TemperatureF,Dew PointF,Humidity,Sea Level PressureIn,VisibilityMPH,Wind Direction,Wind SpeedMPH,Gust SpeedMPH,PrecipitationIn,Events,Conditions,WindDirDegrees,DateUTC
12:53 AM,84.0,73.0,69,29.95,10.0,SSW,6.9,-,N/A,,Clear,210,2013-07-19 04:53:00
1:53 AM,84.0,73.0,69,29.94,10.0,SW,11.5,18.4,N/A,,Clear,220,2013-07-19 05:53:00
2:53 AM,82.9,73.0,72,29.92,10.0,SW,10.4,-,N/A,,Clear,220,2013-07-19 06:53:00
3:53 AM,82.0,72.0,71,29.91,10.0,SW,12.7,18.4,N/A,,Clear,220,2013-07-19 07:53:00
4:53 AM,82.0,73.0,74,29.89,10.0,SW,13.8,-,N/A,,Clear,230,2013-07-19 08:53:00
5:53 AM,81.0,73.0,77,29.88,9.0,SW,15.0,19.6,N/A,,Clear,230,2013-07-19 09:53:00
6:53 AM,81.0,72.0,74,29.89,7.0,SW,12.7,-,N/A,,Clear,220,2013-07-19 10:53:00
7:53 AM,82.0,72.0,71,29.88,6.0,SW,15.0,23.0,N/A,,Haze,230,2013-07-19 11:53:00
8:53 AM,84.0,72.0,67,29.89,6.0,WSW,16.1,24.2,N/A,,Haze,240,2013-07-19 12:53:00
9:53 AM,84.9,72.0,65,29.90,7.0,SW,18.4,26.5,N/A,,Clear,230,2013-07-19 13:53:00
10:53 AM,88.0,72.0,59,29.88,7.0,WSW,19.6,27.6,N/A,,Clear,240,2013-07-19 14:53:00
11:53 AM,90.0,72.0,55,29.87,8.0,SW,13.8,26.5,N/A,,Clear,230,2013-07-19 15:53:00
12:53 PM,93.0,71.1,49,29.85,10.0,SW,18.4,29.9,N/A,,Clear,230,2013-07-19 16:53:00
1:53 PM,93.9,70.0,46,29.83,10.0,SW,23.0,32.2,N/A,,Clear,230,2013-07-19 17:53:00
2:53 PM,96.1,70.0,43,29.81,10.0,WSW,19.6,25.3,N/A,,Clear,240,2013-07-19 18:53:00
3:53 PM,95.0,68.0,41,29.79,10.0,WSW,21.9,29.9,N/A,,Clear,250,2013-07-19 19:53:00
4:53 PM,95.0,69.1,43,29.77,10.0,WSW,19.6,28.8,N/A,,Clear,250,2013-07-19 20:53:00
5:53 PM,91.9,69.1,47,29.76,10.0,WSW,17.3,27.6,N/A,,Clear,240,2013-07-19 21:53:00
6:53 PM,89.1,69.1,52,29.75,10.0,WSW,18.4,24.2,N/A,,Clear,240,2013-07-19 22:53:00
7:53 PM,90.0,70.0,52,29.75,10.0,WSW,18.4,-,N/A,,Clear,250,2013-07-19 23:53:00
8:53 PM,86.0,71.1,61,29.75,10.0,WSW,12.7,-,N/A,,Partly Cloudy,250,2013-07-20 00:53:00
9:53 PM,84.9,72.0,65,29.75,10.0,WSW,13.8,-,N/A,,Overcast,250,2013-07-20 01:53:00
10:53 PM,86.0,70.0,59,29.75,10.0,WSW,19.6,25.3,N/A,,Mostly Cloudy,250,2013-07-20 02:53:00
11:53 PM,81.0,73.0,77,29.77,10.0,West,13.8,20.7,N/A,,Mostly Cloudy,260,2013-07-20 03:53:00